When you browse on this site, cookies collect data to enhance your experience and personalize the content and advertising you see.
Visit our Privacy Policy to learn more. By continuing to use the site, you agree to this use of cookies and data.
  • In Schweiz
  • Länderverzeichnis
  • Für 7 Tage
  • Wassertemperatur
  • Satellitenkarten
  • Wetterkarte
  • Widgets
  • user-avatar
    Anmelden

    Stündliche Wetter Tukupita

    Heute, 24 Juli, Mittwoch

    Zeit Temperatur Niederschläge Wind Luftdruck Luftfeuchtigkeit
    00:00 +25°C° 0 mm 1 m/S 759 mmHg 98%
    01:00 +25°C° 0 mm 1 m/S 759 mmHg 98%
    02:00 +25°C° 0 mm 1 m/S 759 mmHg 99%
    03:00 +25°C° 0 mm 1 m/S 759 mmHg 99%
    04:00 +25°C° 0 mm 1 m/S 759 mmHg 99%
    05:00 +24°C° 0 mm 1 m/S 759 mmHg 99%
    06:00 +25°C° 0 mm 1 m/S 759 mmHg 96%
    07:00 +26°C° 0 mm 1 m/S 759 mmHg 93%
    08:00 +27°C° 0 mm 1 m/S 760 mmHg 90%
    09:00 +29°C° 0.3 mm 2 m/S 760 mmHg 82%
    10:00 +30°C° 0.3 mm 2 m/S 760 mmHg 73%
    11:00 +32°C° 0.3 mm 2 m/S 760 mmHg 65%
    12:00 +32°C° 0.3 mm 2 m/S 759 mmHg 63%
    13:00 +34°C° 0.3 mm 2 m/S 758 mmHg 61%
    14:00 +34°C° 0.3 mm 2 m/S 758 mmHg 58%
    15:00 +34°C° 0.1 mm 2 m/S 757 mmHg 60%
    16:00 +32°C° 0.1 mm 2 m/S 757 mmHg 61%
    17:00 +32°C° 0.1 mm 2 m/S 757 mmHg 62%
    18:00 +30°C° 0 mm 2 m/S 757 mmHg 71%
    19:00 +28°C° 0 mm 2 m/S 758 mmHg 80%
    20:00 +26°C° 0 mm 2 m/S 758 mmHg 88%
    21:00 +26°C° 0 mm 2 m/S 759 mmHg 91%
    22:00 +25°C° 0 mm 1 m/S 759 mmHg 94%
    23:00 +24°C° 0 mm 1 m/S 760 mmHg 96%

    Morgen, 25 Juli, Donnerstag

    Zeit Temperatur Niederschläge Wind Luftdruck Luftfeuchtigkeit
    00:00 +24°C° 0 mm 1 m/S 759 mmHg 97%
    01:00 +24°C° 0 mm 1 m/S 758 mmHg 98%
    02:00 +23°C° 0 mm 1 m/S 758 mmHg 98%
    03:00 +21°C° 0 mm 0 m/S 758 mmHg 98%
    04:00 +21°C° 0 mm 0 m/S 758 mmHg 98%
    05:00 +21°C° 0 mm 0 m/S 758 mmHg 98%
    06:00 +25°C° 0 mm 1 m/S 758 mmHg 92%
    07:00 +26°C° 0 mm 1 m/S 759 mmHg 86%
    08:00 +27°C° 0 mm 1 m/S 759 mmHg 80%
    09:00 +29°C° 0 mm 1 m/S 759 mmHg 73%
    10:00 +31°C° 0 mm 2 m/S 759 mmHg 65%
    11:00 +34°C° 0 mm 2 m/S 760 mmHg 57%
    12:00 +32°C° 1.3 mm 2 m/S 759 mmHg 65%
    13:00 +31°C° 1.3 mm 3 m/S 758 mmHg 73%
    14:00 +30°C° 1.3 mm 3 m/S 758 mmHg 81%
    15:00 +30°C° 0.9 mm 3 m/S 757 mmHg 79%
    16:00 +31°C° 0.9 mm 2 m/S 757 mmHg 77%
    17:00 +31°C° 0.9 mm 2 m/S 757 mmHg 75%
    18:00 +29°C° 0.1 mm 2 m/S 757 mmHg 79%
    19:00 +28°C° 0.1 mm 2 m/S 758 mmHg 83%
    20:00 +27°C° 0.1 mm 2 m/S 758 mmHg 86%
    21:00 +26°C° 0 mm 1 m/S 759 mmHg 89%
    22:00 +26°C° 0 mm 1 m/S 759 mmHg 92%
    23:00 +25°C° 0 mm 1 m/S 760 mmHg 95%

    übermorgen, 26 Juli, Freitag

    Zeit Temperatur Niederschläge Wind Luftdruck Luftfeuchtigkeit
    00:00 +25°C° 0 mm 1 m/S 759 mmHg 96%
    01:00 +25°C° 0 mm 1 m/S 759 mmHg 97%
    02:00 +24°C° 0 mm 1 m/S 758 mmHg 98%
    03:00 +24°C° 0 mm 1 m/S 758 mmHg 98%
    04:00 +24°C° 0 mm 1 m/S 758 mmHg 98%
    05:00 +24°C° 0 mm 1 m/S 759 mmHg 98%
    06:00 +25°C° 0 mm 1 m/S 759 mmHg 93%
    07:00 +27°C° 0 mm 1 m/S 759 mmHg 87%
    08:00 +28°C° 0 mm 1 m/S 760 mmHg 81%
    09:00 +29°C° 0.9 mm 1 m/S 760 mmHg 80%
    10:00 +30°C° 0.9 mm 1 m/S 760 mmHg 80%
    11:00 +30°C° 0.9 mm 2 m/S 760 mmHg 79%
    12:00 +30°C° 1.3 mm 2 m/S 759 mmHg 79%
    13:00 +30°C° 1.3 mm 2 m/S 758 mmHg 80%
    14:00 +30°C° 1.3 mm 3 m/S 758 mmHg 80%
    15:00 +30°C° 0.5 mm 2 m/S 758 mmHg 82%
    16:00 +29°C° 0.5 mm 2 m/S 757 mmHg 84%
    17:00 +29°C° 0.5 mm 2 m/S 757 mmHg 85%
    18:00 +28°C° 0.2 mm 2 m/S 758 mmHg 89%
    19:00 +27°C° 0.2 mm 1 m/S 758 mmHg 93%
    20:00 +26°C° 0.2 mm 1 m/S 759 mmHg 97%
    21:00 +25°C° 0 mm 1 m/S 759 mmHg 97%
    22:00 +25°C° 0 mm 1 m/S 760 mmHg 98%
    23:00 +25°C° 0 mm 1 m/S 760 mmHg 98%

    27 Juli, Samstag

    Zeit Temperatur Niederschläge Wind Luftdruck Luftfeuchtigkeit
    00:00 +25°C° 0 mm 1 m/S 760 mmHg 98%
    01:00 +25°C° 0 mm 1 m/S 759 mmHg 98%
    02:00 +24°C° 0 mm 1 m/S 759 mmHg 98%
    03:00 +24°C° 0 mm 1 m/S 759 mmHg 98%
    04:00 +24°C° 0 mm 1 m/S 759 mmHg 98%
    05:00 +24°C° 0 mm 1 m/S 759 mmHg 98%
    06:00 +25°C° 0.1 mm 1 m/S 759 mmHg 95%
    07:00 +26°C° 0.1 mm 1 m/S 760 mmHg 93%
    08:00 +27°C° 0.1 mm 1 m/S 760 mmHg 90%
    09:00 +28°C° 1.2 mm 1 m/S 760 mmHg 88%
    10:00 +29°C° 1.2 mm 2 m/S 760 mmHg 86%
    11:00 +29°C° 1.2 mm 2 m/S 760 mmHg 84%
    12:00 +29°C° 1.8 mm 2 m/S 759 mmHg 85%
    13:00 +29°C° 1.8 mm 2 m/S 758 mmHg 86%
    14:00 +29°C° 1.8 mm 2 m/S 758 mmHg 87%
    15:00 +29°C° 0.7 mm 2 m/S 757 mmHg 86%
    16:00 +29°C° 0.7 mm 2 m/S 757 mmHg 84%
    17:00 +29°C° 0.7 mm 2 m/S 757 mmHg 83%
    18:00 +28°C° 0.3 mm 2 m/S 758 mmHg 87%
    19:00 +27°C° 0.3 mm 1 m/S 758 mmHg 92%
    20:00 +26°C° 0.3 mm 1 m/S 759 mmHg 96%
    21:00 +26°C° 0 mm 1 m/S 759 mmHg 97%
    22:00 +25°C° 0 mm 1 m/S 759 mmHg 97%
    23:00 +25°C° 0 mm 1 m/S 760 mmHg 97%

    28 Juli, Sonntag

    Zeit Temperatur Niederschläge Wind Luftdruck Luftfeuchtigkeit
    00:00 +25°C° 0 mm 1 m/S 759 mmHg 98%
    01:00 +25°C° 0 mm 1 m/S 759 mmHg 98%
    02:00 +25°C° 0 mm 1 m/S 758 mmHg 98%
    03:00 +25°C° 0.2 mm 1 m/S 758 mmHg 98%
    04:00 +25°C° 0.2 mm 1 m/S 758 mmHg 98%
    05:00 +24°C° 0.2 mm 1 m/S 758 mmHg 98%
    06:00 +25°C° 0.1 mm 1 m/S 759 mmHg 96%
    07:00 +26°C° 0.1 mm 1 m/S 759 mmHg 93%
    08:00 +27°C° 0.1 mm 1 m/S 760 mmHg 90%
    09:00 +29°C° 0.2 mm 1 m/S 760 mmHg 79%
    10:00 +31°C° 0.2 mm 1 m/S 760 mmHg 68%
    11:00 +34°C° 0.2 mm 2 m/S 759 mmHg 58%
    12:00 +34°C° 0.2 mm 1 m/S 759 mmHg 55%
    13:00 +35°C° 0.2 mm 1 m/S 758 mmHg 52%
    14:00 +36°C° 0.2 mm 1 m/S 758 mmHg 49%
    15:00 +33°C° 1.6 mm 1 m/S 757 mmHg 62%
    16:00 +31°C° 1.6 mm 1 m/S 757 mmHg 76%
    17:00 +29°C° 1.6 mm 2 m/S 757 mmHg 89%
    18:00 +28°C° 3.3 mm 1 m/S 758 mmHg 91%
    19:00 +27°C° 3.3 mm 1 m/S 758 mmHg 93%
    20:00 +26°C° 3.3 mm 1 m/S 758 mmHg 95%
    21:00 +26°C° 3.4 mm 1 m/S 759 mmHg 96%
    22:00 +26°C° 3.4 mm 1 m/S 759 mmHg 96%
    23:00 +25°C° 3.4 mm 1 m/S 760 mmHg 97%

    29 Juli, Montag

    Zeit Temperatur Niederschläge Wind Luftdruck Luftfeuchtigkeit
    00:00 +25°C° 1.6 mm 1 m/S 759 mmHg 97%
    01:00 +25°C° 1.6 mm 1 m/S 759 mmHg 98%
    02:00 +25°C° 1.6 mm 1 m/S 758 mmHg 98%
    03:00 +24°C° 0.8 mm 1 m/S 758 mmHg 98%
    04:00 +24°C° 0.8 mm 1 m/S 758 mmHg 99%
    05:00 +24°C° 0.8 mm 1 m/S 758 mmHg 99%
    06:00 +25°C° 0.1 mm 1 m/S 759 mmHg 97%
    07:00 +25°C° 0.1 mm 1 m/S 759 mmHg 95%
    08:00 +26°C° 0.1 mm 1 m/S 760 mmHg 94%
    09:00 +28°C° 0 mm 1 m/S 760 mmHg 83%
    10:00 +30°C° 0 mm 1 m/S 760 mmHg 73%
    11:00 +32°C° 0 mm 1 m/S 760 mmHg 62%
    12:00 +33°C° 0.1 mm 1 m/S 759 mmHg 61%
    13:00 +33°C° 0.1 mm 1 m/S 758 mmHg 61%
    14:00 +32°C° 0.1 mm 0 m/S 757 mmHg 60%
    15:00 +33°C° 0.6 mm 1 m/S 757 mmHg 67%
    16:00 +31°C° 0.6 mm 1 m/S 757 mmHg 75%
    17:00 +30°C° 0.6 mm 2 m/S 756 mmHg 82%
    18:00 +29°C° 0.3 mm 1 m/S 757 mmHg 87%
    19:00 +27°C° 0.3 mm 1 m/S 758 mmHg 91%
    20:00 +26°C° 0.3 mm 1 m/S 758 mmHg 96%
    21:00 +26°C° 0 mm 1 m/S 759 mmHg 96%
    22:00 +25°C° 0 mm 1 m/S 759 mmHg 97%
    23:00 +25°C° 0 mm 1 m/S 759 mmHg 97%
    Mehr zeigen